RH
4 4 3 4 3 3 4 4 4 5 6 4 3 3 7 9 6 10 16 17 17 18 20 20 19 19 21 21 22 21 22 22 21 22 22 20 15 19 27 31 41 46 38 35 34 30 30 34 40 40 35 30 28 28 27 27 27 27 26 25 25 24 24 24 24 24 25 25 25 24 22 21 19 18 16 16 15 14 14 14 14 14 14 14 15 14 13 11 9 11 12 26 42 46 50 53 54
4 4 3 4 3 4 4 4 4 5 8 7 4 2 8 11 9 13 18 17 17 18 19 18 18 19 18 17 18 18 23 27 21 18 16 15 17 25 32 35 42 44 37 34 34 31 31 34 40 42 38 32 28 28 28 28 27 27 27 26 25 24 24 24 24 24 25 25 25 25 23 22 20 19 17 16 15 14 15 14 15 14 15 15 15 15 14 12 10 10 11 15 21 28 36 41 42
4 4 4 4 4 5 4 5 5 3 6 6 6 5 8 10 10 16 18 16 15 15 16 17 16 16 16 14 17 17 21 22 17 17 18 18 25 34 37 41 43 41 37 36 34 33 33 36 41 44 43 35 30 28 28 28 28 28 27 26 25 25 24 24 24 24 24 24 25 25 24 23 21 20 18 17 16 15 15 15 15 15 15 15 16 16 15 14 11 9 10 12 15 20 30 38 43
4 4 4 4 4 5 4 6 6 5 6 3 6 11 11 12 13 17 16 14 14 13 13 14 14 13 13 12 14 13 16 19 18 20 21 26 36 40 39 40 44 43 40 37 34 34 37 40 45 48 47 40 32 29 29 29 29 29 28 27 26 25 24 24 24 24 24 24 24 24 24 23 22 20 19 18 17 16 15 15 15 15 15 16 16 16 16 15 13 10 9 10 11 14 19 28 35
4 4 4 4 5 5 5 5 6 7 5 3 8 13 12 14 16 16 15 14 14 14 13 13 12 12 11 10 9 10 16 20 20 20 25 35 44 45 43 41 43 45 44 41 38 37 40 45 51 53 51 46 36 31 29 29 29 29 29 28 27 26 24 23 23 23 23 23 23 24 24 23 22 20 19 18 17 16 16 15 15 15 15 16 16 17 17 17 15 12 10 8 8 9 11 15 20
4 5 4 5 5 7 8 6 6 5 3 5 11 13 13 15 16 16 14 14 15 14 14 12 11 10 9 10 10 12 16 17 19 24 33 42 45 44 44 42 41 42 44 45 44 41 43 49 56 58 56 50 42 35 31 30 30 30 30 29 28 27 25 24 23 23 23 23 23 24 24 23 22 20 20 19 18 17 16 16 16 16 16 16 17 18 18 18 17 15 12 10 8 7 7 8 9
5 5 5 5 5 8 10 8 5 3 5 10 13 13 13 13 14 15 14 15 14 13 12 11 11 9 10 12 12 15 15 15 19 23 30 39 44 43 41 41 41 40 41 45 49 47 47 52 58 62 61 56 49 41 35 32 31 31 31 30 29 28 26 24 24 23 23 23 23 23 23 23 22 20 20 19 18 17 16 16 16 16 16 16 17 18 18 19 18 17 15 13 11 8 6 6 6
6 6 6 5 6 8 10 9 4 4 9 13 14 13 13 13 14 13 14 14 13 12 11 11 11 9 11 13 14 17 16 15 18 18 21 30 38 40 39 41 43 43 44 48 53 54 53 56 60 65 66 62 56 49 41 35 33 32 32 31 30 29 27 25 25 24 24 24 23 23 23 23 22 20 20 20 19 17 17 16 16 17 17 17 17 18 18 19 19 18 17 16 15 12 10 8 8
6 7 6 6 6 7 9 8 5 7 12 14 14 14 14 14 14 14 14 13 13 12 11 12 13 12 12 14 15 17 16 17 19 18 18 21 27 32 35 40 46 50 51 53 59 62 60 60 63 68 70 68 63 56 48 40 35 34 33 33 32 30 29 27 26 26 26 25 24 23 23 22 21 21 20 20 19 18 17 17 17 17 18 17 17 17 18 19 20 20 19 18 18 16 15 14 14
7 7 7 7 7 8 8 6 6 10 14 15 15 14 14 14 14 15 14 13 12 11 11 12 13 14 14 15 17 18 18 19 20 22 21 20 25 31 34 41 48 54 61 62 63 68 67 65 69 72 73 71 68 62 54 46 39 36 35 34 33 32 31 29 28 28 28 27 26 24 23 23 21 21 21 20 19 18 18 18 17 18 18 18 18 17 18 19 20 21 21 20 20 20 19 19 19
8 7 7 8 8 8 7 5 7 12 17 17 15 14 14 14 14 14 14 12 11 11 11 13 15 16 17 18 19 21 21 21 23 23 24 25 29 34 37 43 48 57 75 79 73 72 70 70 72 74 74 71 69 65 60 52 44 40 37 35 35 34 33 32 31 31 30 29 28 25 24 23 21 22 21 20 19 19 19 18 18 18 19 19 19 18 18 20 21 21 21 22 22 22 21 21 22
8 7 8 9 8 7 6 5 9 14 18 17 14 14 13 14 13 13 13 12 11 11 12 15 17 19 21 22 23 25 25 24 26 26 27 30 32 34 37 44 55 68 86 91 85 79 74 73 73 73 72 71 70 67 63 56 49 43 39 37 36 35 34 34 34 33 32 30 29 26 24 23 21 21 22 21 20 19 20 19 19 19 19 19 20 18 18 20 21 21 22 23 22 22 22 22 22
8 7 8 10 9 8 6 7 13 16 17 15 13 13 13 13 12 12 11 12 12 13 18 19 20 24 25 26 27 27 28 29 28 29 32 35 35 35 38 48 68 82 85 87 89 86 81 79 78 75 73 72 73 70 65 59 53 47 42 40 38 37 36 36 35 34 33 31 29 27 25 23 22 21 22 21 20 20 20 20 20 20 20 20 20 19 18 20 21 22 22 23 23 22 22 22 23
8 8 7 10 13 9 6 11 17 18 15 14 13 13 13 12 12 12 12 14 17 20 24 24 24 27 30 34 35 34 35 36 33 34 35 36 36 38 43 52 69 81 78 77 82 86 88 87 84 80 76 75 74 71 65 61 55 49 44 41 40 39 38 37 36 35 34 32 30 28 26 24 22 22 22 22 21 21 21 21 21 21 20 20 21 20 19 19 21 22 22 23 23 23 23 23 23
8 9 8 11 15 9 8 15 19 17 14 13 13 13 12 12 13 13 13 15 19 22 22 24 24 28 41 44 43 43 40 39 37 37 37 38 38 39 47 54 63 73 73 71 73 80 87 90 88 83 79 79 76 72 68 63 57 51 46 44 42 41 40 38 37 37 36 34 32 29 27 25 23 23 23 23 22 22 22 21 22 22 22 21 21 21 20 20 20 22 23 23 24 25 25 25 25
9 10 10 11 13 11 12 18 18 15 14 13 13 13 13 13 14 14 14 13 16 17 17 24 27 33 44 42 38 39 35 34 34 35 37 39 41 42 49 57 64 70 72 70 68 72 78 83 86 84 83 84 80 76 72 66 59 53 48 45 44 43 42 40 40 39 38 36 34 31 28 26 24 24 25 26 24 22 22 22 23 23 23 23 22 21 21 20 21 22 23 23 24 25 27 29 28
9 10 12 11 9 11 17 19 16 14 14 13 13 13 14 14 14 14 14 13 14 15 15 23 32 34 36 33 32 34 32 30 31 32 32 38 45 47 52 60 65 67 69 68 64 67 72 80 87 88 90 91 86 81 75 67 58 53 49 48 46 45 44 42 42 41 40 38 36 33 30 27 27 27 28 28 26 23 23 23 23 24 24 24 23 22 22 21 21 22 23 23 23 24 27 30 30
10 10 13 12 6 11 20 18 15 15 14 13 13 14 14 14 14 13 14 14 13 15 16 21 27 28 28 29 31 33 34 31 30 27 25 34 45 52 59 63 68 70 68 62 61 64 68 79 88 94 97 95 93 85 75 66 59 55 52 51 49 48 47 45 45 44 43 40 38 35 32 31 31 30 29 28 27 24 23 24 24 24 24 25 25 24 23 22 22 22 23 23 23 24 24 26 29
10 9 11 9 7 15 20 16 15 15 14 14 13 14 14 14 14 13 13 14 14 15 16 18 19 20 23 27 32 34 31 26 23 22 24 29 36 50 59 60 68 74 70 65 66 68 70 77 81 86 93 94 94 86 75 67 61 59 57 55 54 52 51 49 48 47 45 43 40 37 34 36 36 35 33 31 30 26 24 24 24 25 25 26 26 25 24 23 22 23 24 25 24 24 24 24 25
10 10 9 7 12 19 18 15 16 15 15 15 14 14 14 14 14 13 13 14 14 15 16 16 16 17 20 24 33 32 24 20 17 19 25 24 27 46 62 62 64 68 69 71 71 67 69 75 72 70 77 84 88 84 76 71 66 63 61 59 58 57 56 54 52 50 48 45 41 39 39 42 41 40 38 37 35 31 28 25 24 25 25 26 27 27 26 25 23 23 24 26 26 25 24 24 24
11 10 7 8 17 20 16 16 16 15 15 14 15 15 14 13 14 13 13 13 13 14 15 14 14 16 18 24 31 26 19 17 15 17 20 20 25 45 69 67 59 62 62 65 66 59 59 64 61 58 66 77 81 78 74 71 68 66 65 64 62 60 59 57 56 53 50 46 43 44 47 47 45 44 43 42 40 38 34 29 26 25 25 26 27 28 27 26 25 24 24 26 28 28 27 26 25
12 11 9 12 19 19 16 18 16 15 16 14 15 14 14 13 13 13 13 13 13 13 13 13 12 13 16 21 23 20 18 17 16 18 17 21 27 45 69 60 50 63 63 59 62 59 58 57 53 52 58 66 68 66 65 66 67 67 68 66 63 62 61 61 59 55 52 47 47 49 50 50 48 47 48 48 47 47 43 35 29 26 26 26 27 28 27 27 26 25 24 26 29 29 29 28 28
12 11 12 14 17 18 17 17 15 15 15 15 15 14 15 14 13 13 12 13 13 12 13 12 12 11 14 19 20 20 18 17 21 23 21 25 32 49 66 56 51 68 68 61 62 66 68 63 60 61 63 64 65 66 67 68 70 71 70 67 65 65 64 63 60 56 53 50 51 52 51 53 52 49 51 53 53 54 51 42 33 28 27 27 26 27 27 27 27 26 25 26 28 29 29 29 29
12 12 13 12 14 18 17 16 15 15 14 14 14 14 14 14 14 13 13 13 12 13 13 12 13 13 15 20 22 21 16 20 31 32 31 34 39 50 60 56 57 66 67 64 66 72 70 65 61 62 67 71 72 74 74 74 77 77 75 72 71 70 68 66 62 58 55 54 55 53 51 55 54 52 54 56 57 57 54 47 38 31 28 28 28 27 27 28 27 26 26 27 28 28 29 29 29
13 12 12 13 15 19 18 16 15 14 14 14 14 14 14 14 14 13 13 13 13 13 12 13 14 14 19 23 23 19 14 23 31 28 32 37 41 52 58 59 58 60 65 68 69 69 66 66 62 56 61 65 65 67 67 67 71 76 78 78 77 74 72 69 65 60 58 58 57 54 53 56 56 56 57 57 57 57 55 49 40 34 31 29 29 29 28 28 28 27 26 27 28 29 29 29 29
13 10 12 17 20 21 19 16 14 14 14 14 14 13 13 14 14 14 13 13 13 12 12 12 13 18 23 23 20 15 14 21 22 19 23 28 36 49 57 58 58 58 65 68 69 66 61 64 63 59 59 59 58 57 54 51 52 60 70 76 75 72 73 73 68 63 61 59 55 54 56 58 60 59 58 58 57 56 55 50 39 34 34 31 30 30 30 29 29 28 27 28 29 29 30 30 30
16 15 16 19 21 21 19 16 15 15 14 14 14 13 14 15 13 12 12 12 12 11 11 12 15 23 22 17 15 13 15 18 18 17 18 21 28 40 51 57 59 60 65 69 67 64 60 61 60 58 55 52 52 50 47 46 44 47 55 62 65 66 73 76 71 66 64 61 57 59 62 63 64 60 59 62 63 63 61 55 43 32 31 34 32 30 31 30 29 29 28 28 28 29 30 31 31
22 23 22 21 20 19 18 16 15 14 14 14 13 13 14 13 12 11 12 13 12 12 12 12 14 19 16 12 13 12 16 18 17 17 17 22 24 34 53 60 62 63 64 68 67 65 64 65 66 65 59 54 52 51 52 51 47 45 49 54 55 59 71 79 76 71 67 63 62 64 67 69 66 62 65 69 70 71 68 65 57 41 30 31 34 33 31 30 29 29 28 29 28 29 30 31 31
26 27 25 22 19 17 17 15 14 14 14 14 14 15 14 12 11 11 12 13 13 13 13 12 12 13 12 11 12 13 17 19 18 17 19 22 22 37 55 55 58 63 60 63 71 77 75 70 69 64 57 54 53 54 56 56 51 46 50 55 55 57 68 79 81 76 69 65 63 62 68 73 70 69 72 75 76 75 73 72 71 61 43 32 31 31 30 29 28 28 28 28 29 29 31 31 31
27 27 25 22 19 18 16 14 14 14 13 14 15 15 13 11 12 12 12 12 13 13 12 12 11 11 11 11 12 13 16 19 18 17 19 22 23 32 41 37 45 55 57 63 74 83 81 70 63 57 56 57 56 55 55 57 54 51 54 58 61 62 68 77 84 81 75 71 66 64 73 78 76 76 76 77 78 76 75 75 75 74 66 53 42 34 30 28 27 27 28 28 29 30 31 32 31
27 26 24 22 19 17 15 14 14 14 14 14 15 14 12 10 12 12 12 11 11 11 11 11 11 11 11 11 12 11 14 18 18 18 19 23 26 25 25 28 37 50 59 65 68 68 66 63 62 61 59 54 48 45 46 49 52 56 60 62 65 68 70 76 85 87 81 78 73 73 80 82 80 79 77 78 80 76 74 75 76 76 75 71 63 51 41 34 29 28 28 28 29 30 31 31 32
25 25 22 21 19 15 14 14 14 14 14 14 14 14 12 10 11 11 12 11 11 11 10 10 10 11 10 10 12 10 13 16 17 21 18 22 29 24 22 26 33 48 59 61 61 57 56 62 65 61 50 39 35 36 37 38 42 49 55 60 65 69 73 77 85 89 83 79 78 80 85 85 82 79 78 80 81 78 75 75 76 74 72 71 65 56 45 37 32 29 28 28 29 30 31 32 32
23 22 20 19 17 15 14 14 14 14 14 14 14 13 12 12 11 11 12 12 13 13 11 11 10 10 10 11 11 11 12 14 19 24 17 17 26 25 24 26 29 40 45 46 51 54 58 62 59 51 38 33 37 39 41 42 43 49 54 60 65 70 75 77 83 86 82 80 77 79 85 86 83 80 79 81 81 80 78 76 75 72 69 67 62 54 42 33 30 29 28 29 30 31 32 34 37
21 21 19 18 17 15 14 14 14 14 14 14 14 13 12 12 12 12 12 13 15 14 12 13 12 10 10 10 11 10 11 13 22 29 21 15 22 26 26 27 26 30 34 35 39 47 57 60 53 43 34 34 39 42 46 48 47 52 60 68 72 74 76 77 81 83 83 81 75 77 85 86 83 81 80 81 82 81 78 77 76 73 71 69 66 59 49 39 34 32 30 32 34 36 40 45 50
20 19 19 18 17 16 15 14 15 16 16 16 16 14 11 11 12 12 12 12 13 14 13 13 12 11 10 10 10 10 12 16 24 32 27 19 23 25 25 28 28 29 31 29 32 41 49 53 47 38 32 35 38 39 44 46 48 53 62 73 77 77 77 76 78 81 82 78 73 76 83 85 84 83 82 83 83 82 79 77 76 75 74 72 70 64 57 51 46 43 42 44 47 49 52 56 59
19 19 18 18 18 16 16 16 16 17 16 17 17 13 10 12 14 12 12 12 13 14 14 13 12 11 10 10 10 12 15 19 25 32 31 26 25 25 24 28 32 32 30 26 33 38 39 43 41 32 31 34 35 38 42 43 48 57 64 72 77 78 76 73 74 79 81 78 73 74 78 81 83 85 85 83 82 82 81 78 76 78 77 74 71 65 62 60 57 57 57 56 58 60 61 62 65
19 19 19 19 17 16 17 16 17 17 17 16 16 14 13 14 14 13 12 12 14 14 13 13 13 12 12 11 11 15 18 20 26 31 33 28 24 24 26 29 33 34 31 30 36 34 29 34 34 27 29 33 33 37 40 38 46 61 67 70 75 78 75 70 70 74 79 76 71 71 75 78 81 83 83 81 81 81 82 79 77 80 81 77 72 67 65 65 64 63 64 63 63 65 67 68 70
20 18 20 20 18 16 17 17 18 18 18 16 15 15 15 15 13 13 13 12 13 15 15 14 14 14 14 13 14 17 18 19 25 31 33 29 24 24 26 28 32 33 30 32 36 34 31 31 29 25 28 32 32 33 36 37 47 62 68 73 79 79 76 71 68 71 77 75 70 70 72 76 80 79 80 81 82 82 82 80 79 82 84 80 74 69 65 62 63 64 66 68 67 69 70 71 71
21 18 19 19 19 17 17 18 20 20 20 17 15 15 15 15 14 13 14 12 13 16 17 16 15 14 13 13 14 15 18 21 27 33 34 29 25 24 27 29 32 33 34 34 35 34 33 30 28 25 27 33 33 32 36 41 52 63 67 74 81 82 79 72 68 72 76 74 71 69 69 76 79 76 76 80 81 80 79 78 79 83 87 85 78 71 64 60 63 67 70 71 71 72 72 71 71
21 19 18 18 19 17 17 20 23 23 20 17 15 16 16 15 14 14 14 14 16 18 17 16 15 15 14 13 13 13 15 20 28 38 43 40 34 31 32 33 33 36 39 40 40 38 37 34 29 26 32 38 34 31 36 42 52 62 67 73 78 79 77 72 69 69 70 70 70 69 70 74 75 72 74 78 79 78 77 78 78 81 86 87 83 76 70 69 73 75 74 75 76 73 70 69 71
23 19 17 18 17 17 18 19 22 23 21 18 14 16 22 21 17 17 16 16 20 21 18 16 15 16 16 15 14 14 14 16 21 32 42 47 43 39 39 40 41 44 48 51 53 50 47 41 34 35 45 47 40 36 37 40 47 57 65 70 71 69 68 66 65 65 66 69 70 70 72 74 73 73 77 79 78 78 78 78 78 80 84 85 84 81 79 80 80 78 77 79 79 74 70 70 72
23 19 17 17 16 16 17 18 22 23 21 19 14 19 36 36 23 21 23 22 24 24 19 16 15 16 18 17 16 16 15 15 16 21 34 45 46 44 49 53 55 57 59 63 69 71 67 57 49 55 63 59 50 47 46 45 50 59 65 67 66 65 66 67 68 69 70 71 70 71 73 73 73 76 80 79 78 79 79 78 77 78 81 83 84 84 83 84 82 81 81 81 79 75 70 68 71
23 20 16 17 16 15 17 19 22 22 20 19 16 19 33 38 30 25 25 27 26 22 19 17 16 16 18 20 19 18 17 16 16 18 29 43 45 43 47 49 50 54 56 61 67 76 80 71 62 66 70 65 56 53 55 56 59 65 69 70 68 68 72 75 77 75 73 71 71 73 74 74 75 78 81 78 76 78 79 77 76 77 80 82 83 82 82 82 84 86 84 80 78 72 67 66 70
22 19 15 17 16 15 20 23 23 22 19 18 18 16 20 35 41 29 23 28 26 19 18 17 17 17 19 21 22 22 22 20 20 18 21 28 31 33 35 38 43 47 50 56 60 65 69 66 62 61 59 58 55 52 53 57 63 67 70 72 71 70 73 78 79 75 71 71 74 77 78 77 79 80 80 76 75 78 79 77 76 76 79 81 82 80 81 82 83 85 82 77 72 63 63 69 71
18 17 17 16 14 17 24 24 22 22 20 18 19 16 18 39 52 41 33 32 25 21 22 21 20 19 20 23 23 22 22 21 22 21 19 20 22 28 38 49 59 61 62 69 69 65 63 58 54 49 44 46 48 48 47 49 57 64 65 68 70 70 71 73 77 77 74 76 80 83 82 80 81 83 80 75 75 75 76 79 79 78 80 81 81 80 81 81 80 81 77 70 64 59 64 73 73
16 15 15 14 15 21 25 25 21 19 21 20 18 16 21 42 54 49 45 38 29 31 33 31 29 28 26 26 26 23 21 21 22 22 21 20 21 27 39 56 70 74 74 77 76 70 65 58 51 42 38 43 44 45 46 45 51 58 58 60 64 65 67 70 75 77 77 82 85 84 84 82 79 82 82 76 74 72 70 76 80 82 83 83 82 81 80 79 76 76 73 64 62 62 65 71 71
14 13 14 16 22 25 25 25 19 22 28 21 19 18 18 39 56 56 58 53 45 47 49 47 43 38 34 31 31 30 28 27 28 27 27 26 27 32 40 51 62 66 65 67 70 68 62 58 54 45 42 46 45 45 48 48 49 55 56 56 59 61 64 68 74 77 79 85 87 83 84 84 78 78 78 73 73 73 69 73 80 83 84 82 81 80 78 76 72 71 67 63 66 66 64 69 69
13 14 18 22 27 25 24 23 19 30 37 22 21 19 15 42 66 67 70 66 59 60 61 59 55 49 47 44 44 44 42 41 40 39 39 39 40 43 48 52 54 56 56 60 64 66 64 60 58 52 48 49 49 47 49 50 51 54 56 55 56 58 59 64 70 76 80 85 88 84 82 84 82 79 77 73 75 79 76 75 79 82 82 80 79 78 77 75 71 67 65 64 68 65 61 67 70
21 20 22 26 29 27 27 33 34 36 31 22 24 19 28 67 82 76 78 75 70 68 59 59 62 60 58 55 52 51 49 48 46 45 44 43 45 46 48 49 47 49 54 57 57 59 61 58 54 50 48 51 56 54 53 55 53 54 56 55 55 58 62 65 69 75 80 85 90 90 85 85 83 80 80 80 80 83 83 81 80 81 83 80 78 79 80 76 70 66 66 67 67 63 61 67 71
28 26 25 27 34 35 37 47 47 35 27 27 26 24 50 90 95 89 91 83 76 69 59 60 63 59 55 50 47 45 44 45 43 43 42 41 43 44 44 44 45 49 56 58 54 51 50 49 46 43 44 52 59 59 60 62 59 56 57 59 60 65 73 76 75 77 82 85 89 90 89 89 87 83 83 84 86 86 84 84 85 84 82 81 80 81 80 77 71 67 69 69 65 62 64 67 69
27 27 26 26 29 33 39 47 44 34 33 32 29 40 69 91 93 95 94 85 77 69 64 64 59 54 51 48 48 46 45 47 46 45 44 41 43 46 48 50 53 58 63 65 62 55 49 46 48 51 58 66 67 63 64 67 66 62 59 61 62 67 77 80 73 70 72 77 81 81 82 84 85 87 86 82 83 83 79 81 86 85 83 84 84 80 78 78 74 69 69 69 63 62 65 67 67
26 26 27 27 24 22 28 35 31 28 41 54 61 73 86 91 95 96 91 85 79 69 65 63 57 54 51 49 51 50 50 52 51 51 49 46 47 51 55 59 63 64 65 67 67 63 57 55 60 70 77 80 77 74 72 72 71 67 62 61 59 62 73 76 68 63 64 69 74 76 75 74 75 80 83 80 77 77 76 79 84 88 89 88 84 80 79 81 78 72 70 69 64 63 64 64 65
27 26 27 26 23 21 23 28 27 27 49 78 93 97 98 98 99 97 92 86 77 69 66 63 60 57 55 54 54 54 55 55 56 57 55 53 53 57 60 62 64 66 66 67 69 70 69 67 71 76 78 81 82 82 81 80 79 75 69 65 61 61 68 71 67 66 65 62 66 72 70 68 68 69 72 76 76 76 79 81 85 92 93 86 81 78 77 80 81 76 73 70 66 63 63 65 67
26 26 27 25 23 23 22 27 35 43 62 86 97 99 100 100 99 98 92 81 71 70 68 64 64 63 62 62 60 58 57 54 56 58 57 59 61 63 66 66 67 71 72 74 76 77 78 75 73 71 72 78 80 80 83 84 84 83 81 79 77 70 66 67 67 69 66 58 61 69 64 60 65 65 65 71 75 77 81 82 86 93 92 83 78 77 76 80 79 75 74 72 67 64 65 67 66
25 24 25 24 24 25 22 26 34 43 66 90 99 101 100 98 99 99 94 79 67 69 70 66 66 65 61 60 57 55 54 54 60 65 66 69 72 72 70 69 71 71 72 75 79 81 80 77 74 72 74 77 75 70 70 74 78 81 82 88 88 78 68 65 62 65 65 59 62 70 64 61 65 62 60 65 72 79 81 82 85 88 87 82 77 76 79 82 78 75 74 71 68 66 65 65 63
25 25 24 23 24 24 23 25 27 35 65 93 99 99 98 95 97 98 97 87 70 68 76 74 71 69 60 54 54 54 58 64 71 74 73 73 75 75 69 67 71 72 73 77 80 83 84 81 79 79 80 81 76 69 63 63 72 77 77 84 91 86 78 70 62 63 65 63 68 72 67 66 67 63 58 57 65 79 83 81 83 84 87 85 78 76 80 82 79 79 78 70 66 66 64 62 60
25 25 25 24 24 24 25 25 22 29 63 94 100 98 93 89 94 98 96 91 79 75 81 80 76 71 62 58 60 63 68 75 79 77 75 72 70 71 66 61 61 64 69 75 78 82 86 85 83 82 81 82 82 80 74 68 72 77 75 80 89 89 84 75 65 62 61 59 66 72 71 70 70 69 64 54 58 75 84 84 83 83 86 83 78 78 82 83 81 82 79 67 62 65 63 62 61
26 24 23 24 23 24 29 35 30 23 42 72 87 94 94 88 94 99 96 95 94 87 80 78 75 70 68 71 73 74 75 80 82 78 75 72 68 68 67 62 58 59 64 71 77 82 84 84 82 79 76 76 77 80 79 74 73 75 75 77 81 80 76 69 60 53 50 53 63 70 72 74 77 80 73 58 57 68 80 88 87 83 82 79 78 81 82 82 82 84 81 66 60 66 64 60 63
Wind_Speed
19 17 16 15 14 14 15 15 13 15 17 18 19 16 9 5 8 8 4 6 8 8 7 6 5 5 4 4 3 3 1 2 4 4 4 5 8 8 9 10 7 8 8 8 10 11 12 15 17 17 18 17 17 15 14 13 12 12 12 11 10 9 8 7 5 4 3 2 2 3 4 4 5 5 5 5 4 4 5 5 7 8 9 11 12 13 14 15 15 15 15 15 15 13 12 11 10
18 17 17 16 15 14 15 15 13 15 16 17 18 15 8 6 10 9 6 6 5 4 5 5 3 2 2 1 2 2 1 1 2 4 6 7 8 7 7 8 7 8 8 8 9 10 12 14 16 17 18 18 17 16 15 14 13 12 12 12 11 10 9 8 6 5 4 3 2 3 4 4 4 4 4 3 3 3 4 4 6 7 9 10 12 13 14 15 16 16 16 16 15 15 14 14 12
18 17 17 16 15 15 16 15 15 14 14 15 13 10 8 10 12 10 8 7 5 5 4 4 2 0 2 2 3 4 5 5 5 5 6 7 5 4 5 5 6 8 7 8 9 10 11 14 16 17 18 18 18 16 15 14 13 13 12 12 12 11 10 8 7 6 5 4 3 3 3 3 3 3 2 2 2 2 2 3 5 7 8 9 11 12 14 16 17 17 17 17 17 16 16 15 13
18 18 17 17 16 16 17 17 17 16 14 13 8 7 10 12 13 11 11 8 7 7 5 4 1 3 5 6 7 8 7 6 6 5 5 4 2 2 3 4 5 7 7 8 9 9 11 13 15 17 18 18 17 16 15 14 14 13 13 12 12 11 10 9 8 7 6 5 4 4 3 3 3 2 1 1 1 1 1 3 4 5 7 8 10 12 14 16 17 17 18 18 17 16 15 14 13
18 18 18 17 16 16 17 17 18 20 15 11 8 9 12 13 14 13 12 9 8 7 5 3 2 3 5 8 8 8 7 7 7 6 4 2 2 2 3 3 4 6 8 9 9 10 11 12 14 16 17 17 17 16 16 15 14 13 13 13 12 12 11 9 8 8 7 6 5 5 4 4 3 2 1 0 0 1 1 2 3 4 5 7 8 11 13 16 17 17 18 18 17 16 15 14 14
18 18 18 18 17 16 17 16 19 20 13 9 10 13 15 14 15 14 12 11 8 6 5 3 2 4 6 8 8 8 8 9 8 5 4 3 4 4 5 5 4 6 8 9 10 10 10 12 14 15 16 16 16 16 16 15 14 14 13 13 13 12 11 10 10 9 8 7 6 6 6 5 4 3 2 1 1 1 1 1 2 3 4 6 7 9 12 15 16 17 18 18 18 17 16 16 17
18 18 18 18 18 17 17 19 19 14 11 12 13 18 17 13 14 14 13 12 9 8 7 5 3 6 7 8 8 8 9 8 7 6 5 5 6 7 7 6 5 6 8 10 10 10 10 12 13 14 15 15 16 16 16 15 15 14 14 14 13 13 12 11 11 10 9 8 8 7 7 6 6 4 3 3 2 2 2 2 2 3 4 5 6 8 10 13 15 17 17 18 18 17 17 17 18
18 18 18 18 19 18 18 21 16 11 14 16 15 18 16 12 14 16 15 13 12 10 8 6 5 7 7 7 9 8 8 7 7 7 6 7 7 8 8 7 6 6 7 9 10 10 11 11 12 13 14 14 15 15 15 15 15 15 15 15 14 13 12 12 11 10 9 9 9 9 9 8 7 6 5 4 3 3 3 3 3 3 4 4 5 6 8 12 14 16 16 17 17 16 16 16 17
18 18 18 19 20 19 19 20 15 12 17 16 14 16 15 13 15 17 15 13 11 9 6 6 6 6 7 8 8 8 7 7 7 7 7 7 8 8 9 8 6 5 6 8 9 10 10 11 12 13 13 14 15 15 16 16 16 15 15 15 14 13 12 12 11 10 10 10 10 10 10 9 9 7 6 5 5 5 5 4 4 4 4 4 4 5 6 9 13 14 15 15 15 14 15 15 16
18 19 19 18 19 20 20 18 14 15 16 14 14 15 14 13 15 16 14 11 9 7 5 7 7 7 7 7 7 6 6 7 8 8 7 7 7 8 8 8 7 5 4 5 7 8 9 10 12 13 13 14 15 15 16 16 16 15 15 14 14 13 12 12 11 10 11 11 11 11 11 11 10 8 7 6 6 6 7 6 5 5 4 4 4 4 4 7 11 13 14 14 13 13 13 14 15
18 20 20 19 19 20 21 17 13 14 13 12 13 13 13 14 15 15 13 11 9 8 7 8 8 7 7 6 6 5 5 6 7 8 8 8 8 9 9 9 8 5 3 3 4 7 8 10 12 13 14 14 15 15 16 16 16 15 14 14 13 13 12 11 11 11 12 12 12 12 12 12 11 10 9 8 8 8 8 7 6 6 5 4 4 4 4 6 9 12 13 13 12 11 12 13 14
19 21 20 19 21 20 19 16 12 12 11 10 12 12 14 14 14 13 12 12 10 8 8 8 8 7 7 7 6 5 4 5 7 8 8 8 9 10 11 10 7 3 3 3 4 6 8 10 12 13 14 14 15 15 16 16 15 15 14 13 13 13 12 11 12 12 13 13 13 13 14 14 13 11 10 9 9 9 9 9 8 7 6 6 5 4 4 4 7 10 11 11 11 10 11 12 12
19 20 20 19 20 19 17 13 10 9 9 11 11 13 14 13 13 13 12 12 10 8 7 7 7 7 7 5 3 4 5 6 7 8 8 9 11 11 11 9 5 3 3 4 6 7 8 10 13 14 15 15 16 16 16 16 15 14 13 13 13 12 12 13 13 14 14 14 14 14 15 15 14 13 12 11 10 11 11 10 10 8 8 7 6 5 5 4 6 9 10 10 10 9 10 11 11
19 20 20 19 18 18 15 12 9 8 9 11 11 13 14 13 12 12 10 8 7 7 7 6 7 7 5 1 0 3 4 5 6 7 9 11 12 12 11 9 6 5 4 4 5 7 9 11 13 14 14 15 15 16 16 15 14 13 13 13 12 12 13 14 15 15 15 15 15 15 16 16 15 14 13 11 11 12 12 12 11 10 9 9 8 7 6 5 5 7 9 9 8 8 9 10 10
19 20 20 20 18 16 15 12 8 8 11 12 12 14 13 11 10 10 8 6 5 6 7 7 7 5 1 2 2 2 4 5 7 8 10 12 12 11 10 10 9 7 5 4 5 7 9 11 12 13 13 13 14 14 14 13 13 12 12 13 13 14 15 15 15 15 15 16 16 16 16 16 15 14 14 13 12 13 14 13 12 12 11 10 9 8 8 7 6 7 8 8 7 7 8 10 10
20 20 21 21 19 17 15 11 7 9 14 13 13 13 11 10 9 8 7 8 7 6 7 7 7 4 1 2 3 3 4 4 6 7 9 10 10 10 10 10 10 8 6 5 6 7 9 11 12 12 12 12 12 13 12 11 12 12 12 13 14 14 15 15 15 15 15 16 16 17 17 16 15 15 14 13 13 15 15 15 14 13 13 12 11 10 9 9 8 7 8 8 7 8 8 9 9
21 21 22 22 21 18 15 11 7 11 14 13 14 11 9 10 10 10 8 9 8 6 5 6 6 3 1 1 3 3 4 5 5 5 8 8 7 8 8 9 10 10 8 6 6 8 10 12 12 12 11 12 12 12 11 11 12 12 12 13 14 14 15 15 15 15 15 16 17 17 17 16 16 16 15 14 14 16 17 17 16 15 14 14 13 12 11 11 10 8 8 8 8 8 9 8 8
22 23 23 23 21 17 13 8 8 13 13 14 14 10 8 9 11 12 10 9 8 7 5 4 4 3 2 0 3 4 6 6 5 6 8 8 7 8 7 7 8 9 9 8 8 8 10 11 11 10 10 11 11 11 11 11 12 11 12 13 13 13 14 14 14 15 15 17 18 17 16 15 16 15 15 15 16 17 18 18 18 17 16 15 15 14 13 13 12 10 9 9 10 9 9 8 8
22 23 25 23 18 14 11 8 10 13 12 13 13 11 8 8 10 11 10 8 7 8 7 4 3 2 1 1 4 5 6 7 8 8 9 9 10 9 7 7 7 7 8 9 7 6 8 10 11 11 11 11 11 11 11 10 11 10 11 11 11 12 13 13 13 14 16 17 17 17 15 15 15 15 16 16 17 19 20 20 20 19 18 17 16 16 15 15 14 13 11 11 11 11 10 9 9
23 25 26 21 16 13 11 8 9 11 11 12 13 12 7 6 10 10 9 8 7 8 6 3 2 2 1 2 3 5 5 7 9 10 10 11 11 9 6 5 6 3 5 6 4 5 7 10 12 12 12 11 10 10 9 8 9 9 10 10 11 12 12 12 13 14 16 17 17 16 15 15 15 15 16 16 17 19 20 21 21 20 19 18 18 17 17 16 16 15 13 13 12 12 11 11 11
24 26 25 20 17 14 11 9 9 8 9 11 11 11 5 3 9 10 8 9 8 7 5 2 1 2 1 3 4 4 4 5 8 9 9 11 11 8 4 3 4 4 1 3 4 5 6 8 9 10 9 9 9 8 8 8 9 9 9 10 11 11 12 12 13 14 15 16 16 15 15 15 14 14 15 16 16 17 19 20 21 21 21 20 19 19 18 18 18 17 16 15 14 13 12 13 13
24 26 24 21 18 15 12 9 8 6 8 9 7 9 6 3 7 8 7 8 7 6 5 3 2 1 2 3 4 3 3 6 8 9 9 9 9 8 4 4 2 3 4 3 4 5 5 4 4 4 5 5 5 5 5 6 7 7 8 9 11 12 12 12 13 14 15 16 16 15 14 13 13 14 15 16 16 16 18 20 22 23 22 22 21 20 19 19 19 19 18 17 16 14 14 14 14
25 25 24 22 19 16 12 9 7 6 8 9 6 7 6 4 7 8 7 7 7 7 7 8 7 5 3 2 2 1 4 9 11 10 8 7 8 7 5 5 1 3 5 4 4 5 3 2 2 3 1 0 1 2 3 4 5 6 7 8 10 12 13 12 13 14 15 15 16 16 14 13 13 15 16 16 16 15 16 18 21 23 24 23 22 21 21 21 20 20 20 19 17 16 15 15 15
25 25 24 21 20 16 12 8 7 8 9 9 8 7 5 4 7 9 8 9 9 10 12 12 10 8 4 3 2 2 6 10 13 11 9 8 8 7 5 5 2 2 4 6 6 7 5 4 4 3 2 2 3 3 4 5 6 7 8 9 10 12 13 13 14 15 15 16 16 16 14 14 15 16 16 16 16 15 15 16 19 23 25 24 23 22 21 22 21 21 21 21 19 18 17 16 16
27 25 22 20 19 17 13 10 10 10 8 8 8 7 4 3 7 9 9 11 12 13 15 14 10 6 5 5 2 3 7 11 14 14 15 14 12 9 6 5 5 3 1 5 7 7 7 6 6 5 3 2 4 6 8 8 8 9 10 11 11 12 14 14 15 16 17 16 16 15 13 14 16 16 16 16 15 14 14 14 16 20 23 24 24 23 22 22 22 22 23 22 20 19 19 17 18
25 23 20 19 19 17 17 15 12 11 8 7 7 6 3 4 7 9 11 13 14 16 17 15 10 4 6 5 1 2 5 10 14 17 18 18 17 13 8 7 7 4 2 3 6 8 8 7 6 6 5 4 6 8 11 13 14 13 12 11 13 14 15 15 16 18 18 17 17 15 14 15 16 16 16 16 14 13 13 13 14 16 20 23 24 24 24 23 23 23 24 23 22 21 20 19 19
21 21 21 20 19 19 18 16 14 12 10 8 6 4 4 5 7 8 10 11 12 13 14 13 8 5 6 4 1 3 4 7 12 16 17 18 18 15 11 9 7 4 3 3 6 9 8 7 7 7 8 10 11 13 17 19 22 21 15 13 14 16 17 18 18 19 18 17 16 14 15 16 17 17 16 14 13 13 13 13 13 14 17 21 24 25 25 25 24 24 25 25 23 22 21 20 19
19 17 20 20 20 20 18 15 14 13 10 7 4 3 5 8 7 7 9 10 9 8 7 8 7 6 5 3 4 4 3 5 8 14 16 15 16 14 9 6 6 4 2 2 5 8 8 6 5 6 7 10 14 17 20 21 23 22 16 14 16 18 20 20 20 20 17 16 15 14 16 17 17 17 16 14 14 13 13 13 13 13 15 18 22 25 26 26 25 25 25 25 25 23 22 21 20
19 17 17 18 20 20 16 13 13 13 11 7 5 5 7 8 6 8 11 11 10 7 5 5 6 7 6 4 5 4 4 4 6 11 13 13 14 11 6 6 7 4 1 0 4 7 6 4 3 4 6 9 11 13 16 18 20 20 18 17 19 20 21 21 22 20 18 17 16 17 17 16 17 17 15 14 14 14 13 13 12 13 14 16 20 23 25 25 25 25 25 25 25 23 22 21 21
20 17 16 15 17 18 14 11 12 11 10 8 6 8 9 7 8 11 10 8 8 7 6 5 7 8 7 4 5 4 3 3 4 8 11 11 11 10 10 13 12 7 4 2 7 6 3 1 2 6 10 12 13 13 14 17 20 22 22 22 22 21 21 21 21 22 21 19 19 20 19 17 16 17 16 15 15 14 14 13 13 14 14 16 18 21 23 24 24 24 25 25 24 23 22 22 21
18 17 15 14 13 13 12 10 10 9 8 8 6 8 8 4 5 6 3 3 3 3 5 6 8 10 7 5 5 4 3 2 2 6 9 9 8 10 13 15 13 8 4 5 6 1 1 3 4 7 9 11 13 15 16 17 19 22 23 24 24 23 22 21 22 24 23 20 20 20 19 17 17 17 17 16 16 15 13 13 13 14 15 15 17 19 21 23 24 24 24 23 23 23 22 21 21
15 16 13 14 13 8 8 9 9 8 8 9 8 9 8 4 4 4 1 1 1 2 3 4 7 9 8 6 6 4 3 2 0 5 8 7 6 8 11 12 11 8 4 5 6 5 4 4 5 6 9 11 11 13 14 15 16 19 22 25 27 26 25 22 22 23 22 20 21 21 20 19 18 18 18 17 16 15 13 13 13 13 14 15 16 17 18 20 22 23 23 22 23 23 22 21 20
14 16 11 10 14 10 7 8 9 11 11 11 10 10 10 4 3 5 4 4 3 1 2 3 5 6 7 7 6 5 3 3 2 5 6 5 4 5 8 9 9 7 7 8 7 7 6 4 5 6 9 9 8 9 11 11 12 15 19 24 27 28 27 23 21 22 22 22 22 22 21 20 19 19 18 17 17 16 14 14 14 14 14 14 15 15 15 17 19 20 21 21 21 21 20 19 18
13 15 13 9 11 13 10 8 8 9 10 10 10 12 13 7 6 5 3 4 3 3 7 8 7 8 7 8 5 4 4 4 4 3 3 3 3 4 5 5 7 7 8 9 8 7 5 4 5 6 8 8 6 8 9 10 12 14 17 21 24 26 27 23 21 22 23 22 23 23 23 21 20 19 18 18 17 16 15 15 15 15 15 14 14 14 14 15 16 17 18 18 18 18 17 16 16
12 12 16 12 10 12 11 9 8 7 7 8 7 10 14 12 10 9 6 6 4 3 8 8 7 13 10 8 6 4 5 6 6 4 3 2 2 1 2 3 4 6 7 8 8 8 5 4 4 5 6 6 7 8 9 10 13 15 17 19 21 24 26 24 21 22 22 21 22 24 24 22 20 18 18 18 17 17 16 15 15 16 16 15 15 15 14 14 15 15 16 16 17 16 16 16 16
13 12 16 15 11 10 9 9 7 5 5 6 8 11 14 12 13 13 11 8 4 2 5 9 3 13 13 9 7 5 6 7 6 5 4 3 1 1 2 3 3 4 6 7 7 8 6 3 3 4 5 6 6 7 7 7 9 11 13 16 19 22 24 23 20 21 22 21 21 22 22 21 19 18 18 17 17 17 17 16 16 17 17 15 15 15 13 13 14 14 15 15 16 15 16 16 16
16 13 13 13 13 12 8 7 5 4 5 6 9 12 12 12 12 12 11 8 3 1 2 7 7 9 10 9 8 7 6 5 6 6 5 3 2 3 4 4 3 2 3 4 5 6 5 3 2 4 6 6 6 4 4 5 6 6 8 10 15 20 22 19 17 20 22 21 21 21 20 19 18 16 16 17 17 17 17 17 17 17 17 16 15 15 15 15 15 15 15 16 17 16 16 16 16
18 15 12 10 13 13 8 5 3 2 4 6 10 10 10 12 14 14 12 10 6 1 3 5 7 8 8 7 7 7 6 5 5 6 6 4 3 5 6 6 5 2 1 2 2 1 2 2 4 6 7 6 6 5 4 4 3 1 4 7 13 18 19 17 14 18 21 20 20 20 19 18 17 15 16 16 17 18 17 17 17 18 18 17 17 17 18 18 18 18 18 18 18 17 16 16 16
20 17 14 10 10 11 7 4 2 2 3 4 7 8 7 12 15 15 12 9 7 2 5 5 5 7 9 9 9 8 6 6 6 7 7 5 5 6 6 7 8 6 4 2 2 4 3 2 4 7 6 6 7 6 5 5 3 1 6 10 15 18 18 17 15 17 20 20 20 20 19 18 17 16 16 16 17 18 18 18 18 18 19 19 19 19 20 19 20 20 18 17 17 17 16 16 15
23 20 17 12 10 8 6 6 3 1 2 4 5 6 5 9 12 12 10 7 5 3 6 6 4 4 7 10 11 10 9 8 8 10 10 8 7 7 7 9 10 9 7 6 6 7 6 3 3 4 4 4 4 4 3 4 3 3 7 12 17 19 20 20 19 19 20 20 19 19 18 17 17 17 16 17 18 18 18 19 19 19 20 21 20 21 21 20 20 19 17 16 17 17 16 16 15
24 22 20 15 11 8 5 5 3 1 2 5 8 11 8 5 8 7 7 6 5 5 7 6 5 4 5 8 10 10 9 10 10 11 11 11 10 9 9 10 12 11 9 9 9 8 6 4 3 2 0 0 1 1 1 3 4 4 7 12 17 19 20 21 20 20 19 19 19 18 17 17 18 18 17 17 17 18 18 19 19 19 20 22 21 21 21 20 19 19 17 16 17 17 16 16 15
24 24 23 17 12 8 5 4 2 0 3 6 10 10 8 5 7 6 6 6 6 7 6 4 4 6 5 5 6 6 7 9 10 11 11 12 11 10 9 11 13 13 12 12 11 12 12 10 9 7 5 4 5 5 5 3 4 5 8 11 15 16 18 19 19 18 18 18 18 17 17 18 19 19 18 18 17 18 18 19 20 19 20 22 21 21 21 20 20 20 18 18 18 18 18 17 15
24 24 24 20 14 9 7 6 4 2 3 5 8 7 6 7 7 7 7 6 6 6 4 3 2 4 5 4 3 3 5 8 11 12 12 13 12 12 12 14 17 16 15 15 14 15 17 16 14 11 7 6 8 8 8 7 7 8 10 13 14 16 18 20 20 18 17 16 16 16 17 18 19 20 20 19 19 19 19 19 20 20 20 21 21 21 21 20 20 20 20 19 19 19 18 17 15
25 25 23 20 16 11 7 7 6 4 5 5 5 7 8 7 5 5 5 4 4 3 2 1 0 2 4 5 4 2 1 4 8 11 12 14 15 15 16 17 18 17 15 15 15 15 16 14 9 6 5 6 8 7 8 9 9 10 12 15 17 17 19 21 21 19 17 16 16 17 18 18 19 21 21 21 20 20 19 19 20 20 20 21 22 22 21 21 21 21 21 20 19 19 17 16 15
26 25 21 18 15 12 9 8 7 6 7 8 6 7 7 5 4 4 3 3 2 1 1 0 0 1 2 3 3 2 2 3 5 7 9 12 15 16 17 17 16 14 14 13 13 14 14 10 4 1 5 8 7 6 7 9 10 12 13 16 19 19 19 20 21 21 19 17 17 18 19 20 21 22 23 22 22 21 20 19 20 20 21 22 22 22 22 22 22 22 21 20 19 18 17 16 16
25 23 19 17 14 13 12 8 8 7 6 8 8 9 6 2 3 6 4 4 3 4 3 2 2 2 2 1 1 1 2 3 4 5 7 10 13 16 16 15 14 13 13 12 10 12 10 6 5 8 11 11 9 9 10 11 13 15 15 16 19 20 20 20 20 21 20 19 19 19 20 23 23 22 23 23 23 22 20 20 21 21 22 23 23 23 23 23 23 22 21 20 19 17 17 17 16
23 21 19 15 13 14 13 10 10 6 3 7 11 11 7 1 1 4 5 4 5 6 6 5 4 3 3 3 3 3 2 3 4 5 7 9 12 14 15 15 15 15 15 13 10 10 11 10 11 14 14 14 13 14 14 16 17 18 19 19 19 21 21 20 20 21 20 20 21 21 22 23 22 21 22 22 22 21 19 20 22 22 23 24 24 24 23 23 23 22 22 21 19 18 18 18 17
21 21 19 14 12 14 11 9 11 5 1 8 12 12 9 4 3 4 6 6 6 6 6 6 4 2 2 3 3 3 3 3 3 5 6 8 10 11 12 13 14 15 15 13 10 10 12 12 13 15 17 17 17 18 18 19 20 21 22 21 21 21 22 21 21 21 22 22 23 24 24 22 21 21 21 21 21 22 21 21 23 24 25 25 25 24 23 23 23 23 22 21 20 19 19 19 18
21 20 20 14 8 7 5 3 5 3 1 8 12 10 6 4 6 7 7 8 7 6 6 6 4 3 2 1 1 1 3 4 5 6 7 8 9 10 11 12 13 14 13 11 12 12 12 12 15 19 21 21 21 21 21 22 23 23 24 24 23 24 25 25 24 23 24 25 26 27 24 22 21 22 21 20 20 22 23 23 24 26 27 26 25 24 24 24 24 24 24 21 20 20 19 19 19
23 22 21 16 6 4 3 1 1 1 2 9 12 8 5 6 7 8 8 8 8 7 6 6 5 4 4 3 2 2 2 4 5 6 7 8 9 10 11 12 13 14 13 12 14 15 15 17 20 22 22 24 24 23 23 25 25 24 24 25 26 29 30 29 27 25 25 27 29 28 25 22 22 21 21 21 20 22 24 25 26 27 27 26 25 25 26 26 25 25 25 22 20 20 20 20 19
21 21 21 19 10 5 4 3 3 3 4 8 8 4 6 9 9 8 9 9 8 9 8 7 7 6 4 3 3 3 4 5 6 6 7 9 9 10 11 12 13 14 14 14 16 18 18 20 22 23 25 26 25 24 25 26 26 25 25 27 29 32 33 31 28 25 24 27 29 28 26 24 22 21 22 22 22 23 25 26 27 27 26 26 26 26 27 27 25 24 24 21 20 20 20 20 19
18 21 21 21 16 9 7 6 8 10 8 4 3 3 7 11 9 8 10 10 11 11 9 8 8 7 6 5 5 5 5 6 6 7 8 9 10 10 11 12 13 14 15 16 18 20 21 22 23 25 25 24 24 24 25 26 25 26 27 28 29 31 32 32 28 24 23 26 28 28 27 26 24 22 22 22 24 25 25 25 26 27 28 28 27 28 28 26 25 25 24 22 21 20 20 19 18
19 23 23 21 17 13 10 8 7 10 7 3 4 7 10 11 8 7 9 12 14 12 9 8 6 5 5 6 6 6 7 7 8 8 8 9 9 9 10 11 12 14 16 18 20 21 22 23 24 25 25 23 23 24 25 27 28 30 32 31 30 32 33 31 28 25 25 26 26 26 26 25 25 23 21 21 23 24 23 24 25 26 28 27 27 27 26 24 25 26 25 23 21 19 19 19 18
20 23 24 20 13 11 11 7 4 4 3 2 4 7 11 11 6 8 10 13 15 12 10 9 7 5 5 6 7 7 8 8 8 8 9 9 9 9 9 9 10 12 14 16 18 18 19 20 20 22 22 21 21 22 25 28 29 30 33 35 35 35 34 31 29 28 26 25 26 28 27 26 25 24 21 20 21 22 23 22 23 26 26 26 26 25 24 24 25 26 25 22 20 20 20 19 19
19 22 24 18 11 10 12 7 3 3 2 2 3 4 10 11 7 11 13 15 15 13 11 10 7 6 7 8 8 8 6 5 5 5 6 7 8 8 7 7 8 10 11 12 13 13 15 16 17 18 18 18 18 18 21 24 25 26 29 35 37 37 36 32 29 28 26 22 25 29 28 27 26 24 22 21 20 22 22 21 22 25 25 25 25 25 24 25 25 25 25 22 21 20 20 20 20
17 19 23 19 11 12 15 10 6 6 4 2 3 2 8 12 9 11 14 16 16 15 12 10 7 7 9 10 9 7 4 2 1 2 2 3 5 7 7 6 7 8 9 10 10 11 13 14 15 16 16 16 16 16 17 19 20 21 22 26 30 34 36 32 29 28 25 21 22 26 28 28 27 25 23 22 21 21 22 22 22 24 24 25 26 24 23 23 24 25 25 23 21 21 21 20 19
20 19 23 20 13 12 13 9 7 8 5 4 4 1 8 16 13 10 16 18 16 14 12 9 6 7 9 9 6 4 2 1 2 3 4 4 5 6 8 8 8 8 9 10 10 11 11 11 11 12 12 13 14 15 16 16 17 18 16 16 19 23 27 27 26 26 24 21 22 26 28 30 29 27 25 23 22 21 22 23 23 23 24 26 26 24 22 23 24 26 26 23 22 21 20 19 18
22 20 21 21 17 15 11 6 6 7 6 9 8 2 8 20 17 12 17 19 17 15 11 8 7 8 8 6 4 2 2 2 4 5 5 5 6 7 8 10 10 11 12 11 11 11 11 11 12 12 12 12 13 14 14 15 15 16 16 15 16 18 21 23 23 23 24 23 25 27 28 31 32 30 28 25 23 21 22 24 24 24 26 27 26 24 24 24 23 24 25 23 21 20 19 18 18
Wind_Direction
257 254 249 245 238 234 236 235 240 242 238 243 246 247 250 223 194 189 187 163 161 180 173 141 127 117 122 131 154 193 206 192 201 226 259 300 303 290 261 258 245 236 242 217 218 218 209 202 197 200 205 207 206 204 204 205 210 214 219 220 219 214 211 211 207 208 218 252 307 329 336 347 360 16 36 53 56 58 56 48 45 44 43 45 49 50 52 53 56 61 70 82 93 101 106 106 101
251 247 243 239 234 234 236 231 232 240 238 243 248 243 235 186 176 162 152 165 151 152 148 127 119 136 133 106 140 192 281 296 284 301 307 305 297 287 269 260 239 232 239 219 217 220 213 205 199 200 204 208 208 207 206 207 211 216 220 222 222 220 217 215 211 214 222 240 278 310 321 335 352 11 31 49 56 60 58 50 48 49 47 49 54 55 56 57 59 62 68 77 85 90 96 101 102
244 241 238 234 232 231 231 226 227 236 237 241 248 236 208 171 162 151 161 175 143 118 121 138 122 308 292 313 298 296 311 316 316 315 305 299 297 288 285 279 257 247 240 223 218 215 211 207 203 201 204 207 208 208 209 210 213 216 221 223 225 224 222 218 215 218 225 232 251 283 302 318 334 357 20 46 51 55 57 53 55 55 53 54 57 59 60 61 63 65 68 74 79 84 89 95 101
238 235 233 231 230 228 225 225 227 233 235 237 236 200 171 156 155 160 172 172 147 129 125 154 199 281 273 287 299 299 301 312 313 309 299 299 320 332 321 297 276 265 248 233 224 212 206 206 206 204 204 206 207 209 210 213 215 217 221 224 227 226 223 219 217 220 225 228 236 258 280 295 303 321 350 41 38 37 68 66 64 63 61 59 62 63 64 65 66 68 71 75 78 81 84 89 95
231 229 229 227 227 226 224 225 227 231 232 229 220 181 158 148 151 164 173 168 159 149 147 166 225 263 275 287 299 305 308 314 309 307 300 293 318 346 345 314 287 272 258 245 232 216 206 204 205 206 206 205 206 209 211 214 216 219 223 226 227 225 222 219 218 219 224 227 230 244 258 269 269 269 281 343 295 272 106 85 76 73 71 68 67 67 68 69 71 72 74 76 78 81 84 88 92
224 224 225 222 222 223 222 226 229 233 228 213 198 167 155 151 153 167 178 173 173 176 182 187 215 275 293 295 305 313 315 315 311 314 314 322 334 333 329 316 298 277 262 249 238 224 210 203 203 205 207 206 206 208 211 215 217 220 224 227 227 223 220 218 217 219 223 226 229 237 244 250 251 245 239 223 244 254 178 117 100 92 84 77 73 72 73 74 75 76 77 79 79 81 85 90 94
221 221 223 220 221 220 221 226 230 231 208 186 171 157 157 159 160 170 182 177 174 178 182 189 225 281 292 297 309 315 318 320 318 324 327 328 331 330 326 318 305 283 260 246 236 224 210 202 203 204 208 209 208 209 211 215 218 221 225 228 227 223 219 217 217 219 224 228 229 234 238 241 242 236 226 222 234 237 210 176 148 120 101 90 83 79 78 79 79 79 81 81 82 84 89 94 97
218 220 221 219 221 220 224 227 226 218 188 172 160 161 165 170 171 170 181 182 174 174 176 200 247 280 285 300 310 314 321 319 320 330 334 321 316 322 324 321 309 283 256 240 230 222 210 202 201 203 208 210 210 210 212 214 217 221 225 228 227 224 220 219 219 221 228 230 231 234 237 239 237 230 223 220 224 228 220 206 183 147 119 105 97 90 84 84 84 83 84 83 84 88 92 95 98
217 218 219 218 222 222 228 229 223 203 181 174 171 174 174 178 178 172 179 185 181 184 186 213 245 273 284 300 302 308 315 311 319 334 336 323 317 318 316 314 306 281 253 236 227 219 209 201 200 202 205 208 211 211 212 214 217 220 225 228 228 227 224 223 223 226 232 234 235 236 237 239 235 227 222 219 219 221 220 216 200 165 137 126 116 106 95 91 89 87 87 86 87 91 93 94 96
217 217 217 218 221 224 229 228 218 195 182 191 192 182 181 184 183 174 178 187 192 208 223 226 237 266 281 288 285 293 307 310 317 325 328 321 318 315 310 306 302 295 269 242 224 215 208 203 201 203 205 207 209 211 213 215 217 221 226 229 230 230 228 227 228 233 237 239 240 238 239 240 235 227 222 219 218 214 216 222 209 177 154 147 137 126 113 100 95 92 91 92 93 95 95 95 99
218 216 215 217 221 226 230 226 213 194 190 204 196 186 187 186 186 180 184 200 214 229 236 228 237 261 263 267 267 275 297 306 311 318 322 319 318 318 316 309 305 304 271 254 231 217 214 210 207 208 208 208 209 211 214 217 219 222 226 229 231 232 231 231 235 239 242 243 243 240 239 239 235 228 224 220 217 212 212 221 216 188 169 166 160 152 138 114 105 97 95 100 103 103 102 103 107
219 218 216 218 224 227 230 228 213 200 203 200 189 192 192 188 190 192 201 217 233 242 236 227 237 251 244 251 253 258 283 296 308 321 331 333 328 323 319 312 304 278 217 227 233 227 224 219 217 216 214 212 211 212 215 218 219 221 224 227 229 229 231 234 238 240 241 242 241 240 238 237 234 229 226 221 217 213 211 218 218 200 184 181 179 175 166 136 118 106 102 108 115 115 113 114 117
220 222 219 221 228 227 230 226 206 198 200 195 193 197 194 193 197 206 220 230 241 240 230 227 235 240 241 251 239 250 276 295 313 329 344 344 332 323 315 306 282 233 221 221 222 229 228 221 220 219 218 214 211 211 215 217 219 220 222 224 225 225 230 233 234 236 237 238 238 238 237 235 232 229 227 222 216 216 216 216 217 209 198 192 190 190 187 168 139 119 111 117 124 126 126 125 125
219 223 220 221 229 227 225 212 197 198 194 197 196 189 189 196 204 216 229 234 236 230 227 224 233 242 245 278 174 269 294 316 326 332 336 334 330 323 310 296 270 246 254 241 222 224 223 218 218 218 219 217 214 215 217 218 218 218 219 221 221 222 226 228 230 233 234 236 236 237 236 233 231 229 229 224 216 219 221 216 216 215 208 201 198 200 201 196 169 137 125 128 133 136 138 135 132
218 220 218 221 226 224 215 199 202 195 179 183 181 180 188 197 209 222 230 230 227 232 239 235 244 251 227 57 39 336 330 328 321 321 322 324 327 324 312 292 272 260 254 240 221 213 212 211 215 215 215 217 218 220 223 222 219 217 217 219 220 222 224 227 231 234 236 236 237 237 235 233 231 229 228 225 218 219 221 217 215 215 213 208 204 205 208 212 195 159 145 144 145 150 149 144 138
219 217 218 220 220 219 205 194 208 181 165 167 171 178 190 198 212 223 229 234 237 243 249 251 257 253 152 45 35 5 347 337 328 326 323 322 323 323 313 290 273 263 249 233 217 206 204 205 211 212 210 213 219 224 226 223 220 218 217 218 221 223 226 229 234 237 239 239 239 237 235 233 231 230 229 227 223 221 221 218 215 215 215 212 210 211 214 220 212 184 165 160 163 166 164 159 151
220 218 219 221 217 213 197 193 203 171 162 166 169 175 190 205 216 222 234 237 238 247 255 253 249 236 199 50 36 6 357 357 1 356 341 336 330 324 314 296 283 274 264 250 231 213 204 202 205 209 208 210 215 220 221 218 217 218 219 221 224 227 230 234 238 241 242 240 240 239 235 232 229 230 230 229 225 222 221 219 216 215 215 214 213 214 218 224 222 205 185 177 179 184 185 180 171
220 219 220 222 216 205 186 185 181 164 166 172 172 172 188 212 220 223 236 241 244 248 248 239 235 229 203 62 5 344 345 347 350 345 338 338 332 318 312 312 294 278 274 274 262 229 209 205 202 205 211 210 210 212 212 212 215 218 221 226 229 234 239 243 245 246 245 241 240 240 235 228 227 228 228 229 227 224 223 220 218 216 216 216 216 217 221 227 230 220 202 193 193 199 204 202 197
221 222 224 222 209 192 176 170 160 160 166 170 174 173 184 214 226 229 233 238 247 243 243 244 248 252 209 13 345 329 336 345 345 341 336 335 333 326 325 332 312 284 271 269 261 233 216 215 209 206 211 206 202 206 209 210 214 218 223 230 236 242 247 251 253 252 248 244 242 239 232 226 225 226 226 227 227 225 224 222 219 217 217 218 218 220 222 228 235 231 218 209 206 208 215 220 221
220 224 226 218 200 184 173 165 155 159 161 163 171 173 181 213 222 229 231 235 241 238 240 246 269 299 331 332 311 319 335 343 342 342 339 335 341 338 330 344 346 334 275 259 236 233 224 223 224 216 212 204 200 206 209 212 218 223 228 235 241 246 251 255 256 255 251 247 242 234 227 225 224 226 229 229 229 227 226 224 222 218 217 219 221 222 224 230 237 239 231 222 218 216 220 228 234
219 224 225 217 202 186 173 171 162 159 160 161 169 172 180 230 219 223 231 235 239 241 241 234 324 343 322 293 286 316 343 344 338 338 333 331 350 348 325 20 52 95 140 245 220 238 236 229 239 231 217 207 205 211 214 218 224 228 232 238 244 248 250 253 253 253 251 246 240 231 223 223 226 229 232 233 232 232 231 228 225 221 218 219 222 224 226 231 237 242 241 234 229 225 226 232 238
221 224 225 218 205 187 176 179 165 162 169 160 164 182 197 253 231 229 231 231 241 256 261 269 314 303 247 268 278 311 351 351 345 342 336 332 1 10 5 44 47 159 162 204 206 224 236 240 264 258 230 215 212 220 231 238 240 241 244 249 250 250 249 250 249 247 246 244 239 228 221 226 235 235 232 231 232 231 232 230 227 224 220 220 221 224 227 231 236 241 244 243 238 234 233 236 239
225 226 225 219 212 195 178 181 172 176 181 169 165 187 202 232 247 247 233 231 254 273 284 291 294 282 266 233 238 333 360 359 0 353 349 346 15 37 48 58 35 194 165 175 178 188 205 247 302 341 20 164 282 267 274 285 280 270 265 261 254 250 250 246 244 243 240 239 234 223 223 238 241 233 230 231 232 230 231 230 228 225 223 221 222 224 227 232 236 241 245 246 245 242 240 241 244
227 227 224 222 218 197 178 189 193 186 181 183 188 186 190 226 253 252 239 246 265 277 284 288 286 279 261 205 190 41 13 15 23 22 24 25 33 52 61 75 98 138 166 183 178 181 193 218 253 304 1 18 344 321 312 309 300 288 279 272 263 256 252 245 240 239 234 231 228 223 230 242 236 230 230 231 231 231 232 231 230 227 224 223 223 225 228 233 236 241 246 248 248 248 247 247 249
230 227 222 224 216 197 199 214 200 189 183 192 203 193 184 235 256 253 248 257 269 277 282 283 285 271 223 199 183 43 27 31 41 44 47 48 48 55 61 72 73 59 151 192 188 190 199 207 221 244 271 315 316 313 309 309 306 297 291 289 286 275 263 251 239 235 232 224 222 226 233 235 230 229 231 231 231 233 235 236 234 229 226 224 225 227 229 233 237 241 247 249 249 250 251 252 253
232 230 224 224 217 212 226 224 201 198 202 207 216 207 199 241 255 249 246 257 270 274 273 274 276 239 200 209 197 56 42 43 48 48 47 49 53 57 59 63 62 58 86 179 189 188 196 210 218 226 240 265 279 288 286 288 291 289 293 300 302 294 276 256 241 237 232 222 221 229 231 229 228 228 229 231 232 234 236 237 236 231 227 225 225 228 230 233 237 241 247 249 250 251 252 254 255
230 232 231 229 223 225 233 225 209 216 224 223 232 223 203 235 256 251 253 269 278 274 266 265 254 203 207 225 129 98 63 48 46 45 44 46 51 55 56 62 66 71 98 140 177 183 191 210 227 239 246 254 259 267 269 270 272 274 282 295 301 298 282 263 247 239 235 227 225 226 224 224 226 226 226 229 230 233 235 233 234 231 227 225 225 228 230 232 235 240 246 250 251 252 253 254 256
223 228 232 231 228 227 231 228 220 224 228 230 242 225 209 236 263 274 278 284 287 281 263 252 228 201 209 189 131 118 84 56 37 36 41 44 48 53 60 75 82 83 115 135 172 181 186 200 225 250 255 259 262 263 264 262 261 262 271 285 290 288 281 268 254 243 235 228 220 219 222 223 225 227 226 228 229 230 231 231 232 231 226 225 225 227 230 233 236 240 245 250 253 254 255 256 257
219 223 227 228 228 228 231 230 228 227 228 235 239 229 229 243 279 301 292 283 281 277 247 214 197 199 203 168 132 123 98 59 24 31 42 44 45 48 42 53 69 65 39 184 197 188 187 194 214 281 292 282 277 273 269 263 258 259 264 269 271 274 274 268 259 247 232 224 222 223 224 221 223 228 229 231 231 231 233 232 232 230 227 225 226 228 230 234 236 239 244 249 253 255 256 257 257
221 224 228 227 230 233 232 230 233 231 227 231 228 234 243 254 282 295 294 285 277 261 233 206 194 198 196 165 132 126 114 62 16 33 45 42 41 36 22 34 46 36 14 263 225 205 199 240 294 302 296 287 287 289 283 271 263 260 260 261 259 261 266 266 258 247 235 231 230 226 220 216 221 229 232 233 232 234 237 237 233 231 230 228 228 230 231 234 236 239 242 246 250 253 255 256 258
220 223 230 230 234 236 232 231 232 231 231 231 236 248 247 246 273 278 297 287 259 221 215 210 204 201 191 163 147 140 131 120 10 39 47 40 39 30 25 35 40 34 9 279 265 274 285 278 294 302 304 306 308 304 295 288 279 269 262 259 256 254 258 260 254 248 244 238 228 218 213 214 221 230 233 232 232 233 237 238 234 229 228 228 229 231 232 234 235 237 239 243 247 249 252 255 258
212 215 222 227 230 223 222 227 224 226 233 236 244 253 252 261 250 230 200 232 185 152 191 204 200 195 185 168 165 171 163 189 134 59 52 37 37 28 28 36 36 33 13 325 327 350 341 293 301 316 323 324 321 308 295 294 295 288 279 268 260 254 249 250 251 248 245 236 224 215 211 214 221 228 231 230 230 229 232 234 230 225 224 226 228 231 232 233 235 235 237 240 244 247 251 254 257
206 208 206 216 221 216 212 214 218 223 231 241 244 241 250 269 187 162 118 97 87 52 344 296 225 191 175 170 178 204 213 221 181 88 67 43 39 31 31 36 33 31 27 15 3 357 351 330 324 323 323 325 319 304 289 283 288 292 288 276 267 257 243 240 245 244 239 232 227 220 214 215 220 226 229 229 227 225 227 229 226 225 224 224 227 230 232 231 232 233 235 237 241 245 249 251 254
200 199 199 200 210 215 212 197 196 205 215 230 239 240 241 231 170 150 83 56 40 9 351 324 238 198 179 179 192 222 222 211 193 144 102 71 53 35 25 29 31 33 38 34 27 22 10 334 327 318 321 327 314 298 284 279 281 277 271 266 265 256 239 232 234 236 236 230 227 224 217 216 219 223 225 225 225 225 226 227 226 227 227 226 228 230 232 231 231 231 232 233 236 241 243 245 249
197 190 199 204 201 207 208 193 184 187 199 206 221 231 219 212 220 231 255 282 298 332 354 349 216 195 183 186 201 218 213 199 191 192 179 141 100 45 2 3 21 34 42 37 33 37 26 343 331 325 331 335 312 297 290 289 288 276 262 252 253 251 238 228 227 232 235 231 229 228 224 219 217 219 221 221 224 226 227 229 229 230 232 230 228 228 230 234 233 229 229 230 232 236 240 245 250
208 199 201 207 205 206 207 201 206 233 244 222 222 218 202 209 238 239 237 251 275 326 23 33 139 184 183 194 212 211 204 197 195 210 214 192 193 252 303 330 357 30 37 30 37 50 46 23 344 342 356 351 332 316 306 318 314 287 266 249 244 245 238 229 225 231 234 234 234 233 230 226 218 215 218 221 225 228 229 230 230 232 235 233 230 228 228 234 235 229 229 232 234 238 244 250 254
214 212 201 202 209 213 208 201 221 276 274 240 225 221 218 227 234 228 223 225 241 311 75 68 93 149 175 196 207 201 202 203 206 225 236 232 246 257 272 296 307 8 25 28 43 52 47 41 18 4 4 354 344 334 317 344 354 304 273 257 243 237 236 232 227 232 236 236 234 231 231 230 223 216 218 223 226 228 230 231 231 232 233 233 231 229 229 232 233 232 234 238 240 243 246 249 250
216 215 206 199 208 213 209 205 219 271 269 243 225 225 237 233 223 223 226 230 244 264 95 107 116 130 151 176 189 199 214 229 224 233 252 263 278 265 261 275 280 288 324 8 29 1 1 21 13 4 4 358 349 348 339 346 8 277 240 238 231 230 235 236 228 231 236 233 228 228 228 227 225 223 223 226 228 229 232 234 234 232 231 230 228 230 230 230 232 234 236 241 244 245 245 245 244
219 220 216 208 207 210 204 190 185 211 251 248 227 224 238 232 227 230 232 235 241 205 92 96 134 156 166 175 187 203 221 236 241 247 262 277 287 277 268 271 275 278 282 285 272 269 285 332 355 359 9 13 354 351 356 346 348 248 224 209 206 217 231 233 224 225 231 228 223 224 224 222 225 229 230 229 230 233 235 236 235 231 228 227 228 230 231 233 237 237 236 240 244 245 243 242 241
221 222 220 213 207 204 186 165 148 143 248 252 217 184 186 217 223 225 222 219 216 153 95 91 104 161 192 197 200 206 214 219 233 245 257 273 285 289 282 273 276 282 282 279 271 266 273 291 321 348 15 27 0 354 356 332 314 257 232 210 198 205 219 227 224 224 230 232 230 228 225 223 228 233 234 232 231 233 237 238 237 232 226 225 227 230 231 235 241 241 238 242 245 245 244 242 239
223 222 220 214 205 205 196 178 148 72 271 245 188 146 123 172 200 200 198 203 196 126 99 102 94 112 181 211 212 214 221 217 216 226 239 255 263 269 272 273 278 280 275 275 274 265 251 240 246 251 212 185 232 208 249 301 299 267 236 217 207 208 218 228 232 232 235 239 240 238 234 231 232 234 235 234 232 233 236 239 239 233 226 224 225 228 230 233 237 238 239 242 244 243 243 241 240
225 223 219 213 206 216 232 218 193 306 265 231 186 147 97 124 164 156 156 168 160 131 117 116 90 93 134 190 209 216 230 224 214 215 225 238 246 250 258 266 268 262 250 239 226 220 220 212 206 204 209 230 221 206 206 221 259 260 241 227 223 223 226 232 240 241 242 244 245 243 240 238 237 237 236 235 232 231 233 238 240 235 227 224 225 226 229 231 233 235 239 242 242 241 241 241 241
228 224 217 213 215 228 236 217 201 219 228 207 196 184 127 117 136 146 151 144 132 131 130 136 100 74 98 124 154 198 225 228 222 222 227 234 238 240 245 253 258 261 260 250 236 231 231 223 206 195 197 219 222 216 211 209 220 235 238 236 237 238 235 234 235 236 237 241 245 245 243 242 240 239 238 236 233 231 232 234 238 237 230 225 225 226 228 230 232 234 237 238 239 240 241 241 241
226 224 219 218 222 228 220 198 202 232 230 211 209 200 166 120 104 140 162 161 138 123 121 159 198 45 69 89 94 105 214 240 236 235 237 241 245 247 250 255 260 267 273 279 280 274 267 258 231 188 192 221 224 221 216 212 217 224 231 236 241 246 242 236 229 226 229 236 242 244 242 241 238 237 238 237 235 232 231 233 234 234 232 228 228 228 228 230 230 231 233 233 236 240 242 240 238
221 222 222 219 219 219 201 189 208 227 233 227 209 188 171 113 97 131 158 190 178 103 94 156 308 40 44 67 82 67 6 297 263 252 247 247 252 257 261 266 270 279 288 292 294 292 291 288 275 237 255 249 241 239 228 216 216 220 225 231 237 240 237 232 227 224 229 234 239 241 241 239 234 232 234 235 234 231 230 233 232 231 231 231 230 228 227 228 228 228 229 230 234 240 242 239 237
214 216 217 213 213 212 199 201 218 204 206 225 208 189 175 95 126 150 149 161 133 100 98 83 54 32 12 11 353 291 280 283 274 265 256 250 252 258 263 268 271 279 288 289 288 292 289 279 281 282 268 252 245 244 232 219 216 216 220 226 230 231 228 228 228 228 233 237 239 238 240 240 234 231 234 236 237 235 231 232 233 232 232 231 229 226 225 226 226 225 227 228 231 237 240 238 235
207 205 207 204 200 198 194 199 203 185 197 217 202 197 196 157 148 157 142 134 116 109 106 92 74 29 353 327 316 298 258 256 266 270 270 264 262 264 264 266 267 268 273 275 272 268 264 266 282 285 272 255 248 245 230 219 217 215 217 224 227 226 227 230 232 232 237 242 242 240 241 244 241 237 240 244 247 245 240 236 235 234 233 231 228 224 222 224 223 222 227 229 229 234 238 237 234
199 198 198 184 168 174 175 179 179 159 244 206 194 202 206 180 154 155 139 136 132 127 122 115 114 97 17 340 328 327 317 313 315 307 299 293 288 285 281 278 277 275 274 272 259 245 247 260 276 284 280 268 258 251 238 225 220 216 216 221 224 225 228 235 239 240 244 247 247 243 242 246 248 247 245 247 251 253 248 241 238 237 234 230 227 224 222 222 222 223 226 230 230 230 234 235 234
196 199 194 173 145 154 162 164 171 164 186 183 186 195 189 141 149 156 143 143 148 153 158 154 150 153 151 155 285 313 318 315 314 308 302 299 295 293 290 287 284 282 276 262 246 235 231 244 270 284 283 272 262 254 244 232 225 221 219 220 223 227 233 237 239 242 247 250 250 247 244 243 246 248 248 248 249 251 249 244 240 238 234 230 227 226 225 223 222 224 226 227 227 227 229 232 233
195 199 194 181 139 111 176 268 112 194 164 168 182 184 146 133 157 165 156 154 164 172 179 181 175 174 174 174 201 234 274 288 295 295 291 290 286 281 278 276 278 280 273 255 246 244 241 250 268 277 273 267 260 252 245 237 231 228 225 223 227 234 240 241 238 239 244 251 253 253 253 252 248 245 245 245 245 247 250 249 245 242 239 234 229 228 228 225 223 226 227 224 223 225 228 229 231
197 199 199 197 183 140 164 194 168 147 133 161 182 181 154 156 160 173 177 173 180 185 189 195 193 194 203 223 257 272 288 300 300 295 290 287 280 274 272 271 270 270 268 260 256 256 255 256 259 259 258 260 259 253 249 244 237 234 233 230 231 236 244 249 247 244 247 254 258 261 266 267 262 253 246 243 241 240 243 246 246 245 244 239 234 231 229 227 226 229 231 227 222 223 227 228 229
195 197 203 207 206 187 154 156 171 152 124 128 145 131 153 153 150 180 197 194 192 193 196 204 211 218 238 266 281 289 298 300 297 294 290 287 279 274 273 273 273 273 273 269 262 259 257 256 257 257 257 256 257 257 256 253 247 242 240 236 235 239 246 253 254 253 256 259 262 268 270 267 265 263 256 248 245 241 240 242 243 244 243 240 239 237 231 226 226 227 228 226 222 222 227 228 227
189 191 200 203 204 204 175 143 150 145 126 109 117 130 143 143 151 189 211 212 202 201 205 211 227 238 258 283 288 294 298 296 297 295 291 287 280 274 271 273 275 274 273 272 269 267 267 267 268 269 269 266 264 262 260 259 253 247 244 241 237 239 245 250 253 256 258 258 261 267 266 264 269 273 264 251 248 248 246 243 242 243 244 241 238 238 236 232 230 228 222 219 219 223 225 226 225
191 186 194 192 183 195 183 144 118 116 102 133 149 156 157 149 154 178 203 222 213 210 217 218 230 243 258 280 285 290 294 294 295 292 286 281 271 262 259 260 264 266 269 271 273 275 276 277 275 274 274 271 266 262 262 263 260 257 254 249 243 238 240 243 245 252 258 256 261 264 258 258 269 274 267 255 250 251 250 246 242 242 244 241 236 233 237 238 235 232 225 216 216 221 222 221 222
203 192 192 189 175 175 169 149 143 131 97 149 164 178 177 172 166 173 199 230 226 219 226 228 235 250 259 268 274 282 290 294 293 287 283 275 259 252 249 250 256 260 265 269 272 276 278 278 277 274 273 268 261 261 266 270 272 270 266 261 254 242 237 239 240 248 257 257 261 261 251 252 265 271 270 264 256 252 251 248 244 242 241 239 236 233 234 238 237 233 227 217 214 218 218 217 219
199 196 193 192 185 177 171 166 165 155 144 163 148 175 199 195 183 175 202 232 234 224 222 224 238 258 265 272 277 286 306 336 302 281 283 267 246 240 238 245 253 257 266 273 276 277 277 278 278 275 274 273 271 273 277 280 280 280 279 275 261 240 232 236 238 244 251 250 257 259 251 251 261 267 269 268 262 255 250 248 245 242 239 237 236 233 231 234 234 229 224 216 212 215 217 216 218
192 193 192 190 180 168 169 174 172 158 142 143 144 230 212 202 196 192 208 225 235 231 220 218 235 253 261 274 285 288 291 247 245 258 267 266 253 247 243 241 247 260 273 283 285 283 284 289 293 292 291 291 290 290 291 292 290 289 291 284 264 239 230 235 238 241 244 243 250 256 254 254 257 261 265 267 266 259 251 249 246 241 238 234 231 230 229 228 226 223 221 216 212 213 216 219 221
196 195 195 194 188 174 162 167 185 170 149 161 167 158 200 198 196 202 216 227 236 241 237 229 235 245 253 272 296 303 287 262 253 255 264 270 264 260 254 248 253 268 278 285 291 294 297 303 307 308 308 305 301 298 297 298 298 296 292 283 269 252 240 240 240 241 242 243 248 253 255 256 257 257 259 263 265 260 254 253 249 241 237 234 229 226 224 219 217 220 221 218 215 216 218 223 226